Weather in Leningradskaya

Russia / Krasnodar Krai     46°19′13″N   39°23′34″E
temp.,
°C
wind,
m/s
gust,
m/s
humid.,
%
clouds,
%
prec.,
mm/h
press.,
hPa
HPBL,
m
16 may, sun
sun1600:00+17n35705 0.0 101269
03:00+16nne3561100 0.0 101188
06:00+17ne358468 0.0 1011106
09:00+23ne4578100 0.0 1010418
12:00+26ene5668100 0.0 1008831
15:00+25e5763100 0.0 1007840
18:00+23ene3778100 0.0 1005243
21:00+20ene410792 0.0 1004163
17 may, mon
mon1700:00+19e514555 0.0 1003311
03:00+16e48635 0.0 1004154
06:00+15se238089 0.4 100554
09:00+21sw4676100 0.8 1006479
12:00+24wsw3460100 0.0 1007902
15:00+23wsw5674100 0.4 1008767
18:00+19sse2391100 1.1 1009109
21:00+17wnw4695100 1.1 1010149
18 may, tue
tue1800:00+15wsw3796100 4.1 1010244
03:00+14wsw3896100 5.1 1010323
06:00+14sw2595100 0.1 1011215
09:00+18sw4579100 0.1 1011610
12:00+21wsw5666100 0.0 10111216
15:00+22sw366577 0.1 10101448
18:00+20nw35770 0.3 1011534
21:00+15n1289100 0.4 101111
19 may, wed
wed1900:00+14ssw2290100 0.0 101125
03:00+15sw31086100 0.0 1011462
06:00+14sw499514 1.5 1012475
09:00+17wsw811752 1.5 10141115
12:00+18wsw811643 0.1 10151579
15:00+19w79620 0.1 10171353
18:00+17w36710 0.0 1017641
21:00+13sse22750 0.0 101711
20 may, thu
thu2000:00+12sse34830 0.0 101755
03:00+11se22915 0.0 101627
06:00+12e37905 0.0 1016149
09:00+18e610730 0.0 1015627
12:00+22ese896717 0.0 10131185
15:00+24e710664 0.0 10111139
18:00+22e7137397 0.0 1010773
21:00+18ene6148482 0.0 1008333